Wetterstats.de || Aktuelle Messwerte || Aktuelle Wetterkarten NEU! || Radar / Satellit NEU! || Wetterarchiv || Langzeitwerte NEU! || Klim. Kenntage || Met. Ereignisse || Agrarwerte || Echtzeitwerte

Monatsübersicht für Februar 2020 Diagramm
 
Wetter Information zur Wetteranzeige
Zeitraffer
Tageslänge (hh:mm)
Höchsttemperatur in °C
Uhrzeit
Tiefsttemperatur in °C
Uhrzeit
Luftfeuchte (max., in %)
Uhrzeit
Luftfeuchte (min., in %)
Uhrzeit
Luftdruck (max., in hPa)
Uhrzeit
Luftdruck (min., in hPa)
Uhrzeit
Luftdruck (Ø, in hPa)
Regenrate (max, mm/h)
Uhrzeit
Niederschlag in mm
Verdunstung in mm
Solar in W/m² (Ø)
Solar in W/m² (max.)
UV-Index (max.)
Sonnenscheindauer (hh:mm)
Windrichtung (Ø)
Windstärke (Ø in km/h)
Windstärke (Ø in bft)
Windböe (max., in km/h)
Uhrzeit
Windböe (max., in bft)
Uhrzeit
Taupunkt (max., in °C)
Uhrzeit
Taupunkt (min., in °C)
Uhrzeit
Windchill (min., in °C)
Uhrzeit
Gewitterindex (max.)
Uhrzeit
Waldbrandindex (max.)
Uhrzeit
Graslandfeuerindex (max.)
Uhrzeit
Staubsturm-Index (max.)
Uhrzeit
01
Zeitraffer
09:06
12.9
11:25 Uhr
7.9
23:55 Uhr

94
15:20 Uhr
73
23:20 Uhr
1004.9
00:11 Uhr

998.2
17:05 Uhr
1001.3
2,400
09:40 Uhr
3,600
0.711
55
135
10:10 Uhr
0.6
13:05 Uhr

00:00:00
10,5
2
43,5
22:00 Uhr

6
10.1
16:49 Uhr
4.1
23:35 Uhr
0.6
22:45 Uhr
2
06:30 Uhr
0.0
00:00 Uhr
0.0
00:00 Uhr
0.0
00:00 Uhr
02
Zeitraffer
09:09
8.9
06:25 Uhr
5.3
19:50 Uhr

96
20:15 Uhr
74
03:45 Uhr
1006.0
11:30 Uhr

1001.7
00:55 Uhr
1004.1
2,400
03:45 Uhr
4,200
0.533
41
144
10:55 Uhr
0.5
10:55 Uhr

00:00:00
9,0
2
57,9
05:00 Uhr

7
5.7
09:30 Uhr
4.1
01:25 Uhr
-0.5
05:05 Uhr
0
00:00 Uhr
0.0
00:00 Uhr
0.0
00:00 Uhr
0.0
00:00 Uhr
03
Zeitraffer
09:13
8.9
14:20 Uhr
4.6
03:25 Uhr

96
04:55 Uhr
90
13:20 Uhr
1007.1
11:15 Uhr

1003.8
23:55 Uhr
1006.0
4,800
15:15 Uhr
3,200
0.254
67
232
13:05 Uhr
0.7
13:05 Uhr

00:20:00
5,3
1
32,2
17:20 Uhr

5
7.6
14:25 Uhr
3.8
02:45 Uhr
1.8
22:00 Uhr
0
00:00 Uhr
0.0
00:00 Uhr
0.0
00:00 Uhr
0.0
00:00 Uhr
04
Zeitraffer
09:17
6.5
00:20 Uhr
3.2
23:40 Uhr

93
00:00 Uhr
75
14:15 Uhr
1013.7
23:55 Uhr

999.5
05:15 Uhr
1005.2
2,400
18:30 Uhr
1,000
0.686
95
452
12:25 Uhr
0.8
12:25 Uhr

01:21:00
10,1
2
43,5
23:15 Uhr

6
5.4
00:00 Uhr
1.7
15:40 Uhr
-7.5
23:55 Uhr
0
00:00 Uhr
0.0
00:00 Uhr
0.0
00:00 Uhr
0.0
00:00 Uhr
05
Zeitraffer
09:20
5.8
13:10 Uhr
0.9
08:50 Uhr

92
02:10 Uhr
62
15:05 Uhr
1032.1
12:45 Uhr

1013.8
00:00 Uhr
1027.7
2,400
01:40 Uhr
0,800
1.194
236
499
12:05 Uhr
1.1
11:45 Uhr

07:29:00
8,7
2
41,8
00:00 Uhr

6
2.0
02:30 Uhr
-1.1
14:55 Uhr
-6.5
01:50 Uhr
0
00:00 Uhr
0.0
00:00 Uhr
0.0
00:00 Uhr
0.0
00:00 Uhr
06
Zeitraffer
09:24
5.7
15:35 Uhr
2.4
00:25 Uhr

92
22:20 Uhr
79
00:00 Uhr
1030.0
00:00 Uhr

1025.7
14:55 Uhr
1027.1
0,000
00:00 Uhr
0,000
0.559
56
173
10:45 Uhr
0.5
10:40 Uhr

00:00:00
8,5
2
30,6
00:00 Uhr

5
3.9
15:25 Uhr
-0.7
00:05 Uhr
-4.1
05:30 Uhr
0
00:00 Uhr
0.0
00:00 Uhr
0.0
00:00 Uhr
0.0
00:00 Uhr
07
Zeitraffer
09:28
6.3
15:40 Uhr
4.7
20:50 Uhr

95
04:00 Uhr
87
12:10 Uhr
1030.5
11:15 Uhr

1027.3
00:11 Uhr
1029.1
0,000
00:00 Uhr
0,000
0.178
37
62
14:45 Uhr
0.0
00:00 Uhr

00:00:00
2,4
1
14,5
00:05 Uhr

3
4.8
09:35 Uhr
3.6
20:20 Uhr
2.9
00:00 Uhr
0
00:00 Uhr
0.0
00:00 Uhr
0.0
00:00 Uhr
0.0
00:00 Uhr
08
Zeitraffer
09:32
9.1
14:50 Uhr
1.3
20:45 Uhr

94
08:10 Uhr
59
15:35 Uhr
1027.7
00:00 Uhr

1020.4
23:25 Uhr
1023.6
0,000
00:00 Uhr
0,000
1.168
235
401
12:35 Uhr
1.2
11:50 Uhr

07:19:00
5,7
1
25,7
12:50 Uhr

4
3.9
00:00 Uhr
-0.1
20:40 Uhr
-1.7
07:35 Uhr
0
00:00 Uhr
0.0
00:00 Uhr
0.0
00:00 Uhr
0.0
00:00 Uhr
09
Zeitraffer
09:35
12.7
23:55 Uhr
5.4
00:00 Uhr

81
05:45 Uhr
60
18:40 Uhr
1020.6
00:00 Uhr

988.7
23:55 Uhr
1008.8
2,400
15:20 Uhr
1,000
1.982
184
507
13:10 Uhr
1.3
13:10 Uhr

06:07:00
14,0
3
56,3
13:15 Uhr

7
6.2
20:40 Uhr
1.7
00:00 Uhr
0.6
09:10 Uhr
0
00:00 Uhr
0.0
00:00 Uhr
0.3
14:45 Uhr
0.0
00:00 Uhr
10
Zeitraffer
09:38
14.2
01:45 Uhr
3.3
18:10 Uhr

92
03:25 Uhr
61
00:11 Uhr
995.3
17:50 Uhr

983.1
02:25 Uhr
988.8
38,400
02:40 Uhr
10,600
1.067
76
225
12:30 Uhr
0.8
12:30 Uhr

00:34:00
14,6
3
75,6
02:35 Uhr

8
8.2
02:35 Uhr
1.0
21:30 Uhr
-7.3
17:50 Uhr
0
00:00 Uhr
0.0
00:00 Uhr
0.0
00:00 Uhr
0.0
00:00 Uhr
11
Zeitraffer
09:42
6.6
14:00 Uhr
2.9
08:15 Uhr

88
00:30 Uhr
62
15:40 Uhr
1000.7
23:50 Uhr

986.7
01:50 Uhr
994.0
2,400
00:05 Uhr
0,600
1.168
51
146
10:25 Uhr
0.5
10:25 Uhr

00:03:00
18,0
3
64,4
16:30 Uhr

8
2.9
01:45 Uhr
-0.7
23:20 Uhr
-7.3
06:35 Uhr
0
00:05 Uhr
0.0
00:05 Uhr
0.0
00:05 Uhr
0.0
00:05 Uhr
12
Zeitraffer
09:46
6.5
16:00 Uhr
3.3
23:25 Uhr

82
18:10 Uhr
59
15:40 Uhr
1011.6
23:45 Uhr

1000.8
00:00 Uhr
1005.3
2,400
18:40 Uhr
0,200
1.549
94
512
11:15 Uhr
0.9
11:10 Uhr

01:49:00
17,2
3
57,9
17:45 Uhr

7
0.9
18:10 Uhr
-1.2
06:45 Uhr
-7.6
01:35 Uhr
0
00:00 Uhr
0.0
00:00 Uhr
0.0
00:00 Uhr
0.0
00:00 Uhr
13
Zeitraffer
09:50
5.7
11:45 Uhr
1.8
06:40 Uhr

92
23:20 Uhr
66
18:05 Uhr
1013.6
07:55 Uhr

1003.6
22:45 Uhr
1009.5
2,400
22:05 Uhr
0,200
1.168
157
358
11:15 Uhr
1.0
10:55 Uhr

04:20:00
9,5
2
35,4
02:10 Uhr

5
1.7
23:20 Uhr
-1.1
07:40 Uhr
-6.1
03:49 Uhr
0
00:00 Uhr
0.0
00:00 Uhr
0.0
00:00 Uhr
0.0
00:00 Uhr
14
Zeitraffer
09:54
5.2
12:00 Uhr
2.1
23:50 Uhr

95
22:10 Uhr
86
11:50 Uhr
1024.8
23:20 Uhr

1004.2
00:00 Uhr
1015.3
2,400
12:45 Uhr
1,400
0.229
57
213
11:35 Uhr
0.8
11:10 Uhr

00:00:00
1,5
0
11,3
14:15 Uhr

2
3.8
17:20 Uhr
1.2
23:50 Uhr
2.1
23:50 Uhr
0
00:00 Uhr
0.0
00:00 Uhr
0.0
00:00 Uhr
0.0
00:00 Uhr
15
Zeitraffer
09:58
10.2
15:20 Uhr
0.5
03:45 Uhr

97
08:30 Uhr
71
15:30 Uhr
1024.8
00:14 Uhr

1014.1
23:25 Uhr
1020.7
2,400
15:00 Uhr
0,200
0.940
160
414
14:15 Uhr
1.0
14:10 Uhr

04:22:00
6,8
1
30,6
14:25 Uhr

5
5.4
15:05 Uhr
-0.2
03:40 Uhr
-0.5
11:05 Uhr
0
00:00 Uhr
0.0
00:00 Uhr
0.0
00:00 Uhr
0.0
00:00 Uhr


 
Wetter Information zur Wetteranzeige
Zeitraffer
Tageslänge (hh:mm)
Höchsttemperatur in °C
Uhrzeit
Tiefsttemperatur in °C
Uhrzeit
Luftfeuchte (max., in %)
Uhrzeit
Luftfeuchte (min., in %)
Uhrzeit
Luftdruck (max., in hPa)
Uhrzeit
Luftdruck (min., in hPa)
Uhrzeit
Luftdruck (Ø, in hPa)
Regenrate (max, mm/h)
Uhrzeit
Niederschlag in mm
Verdunstung in mm
Solar in W/m² (Ø)
Solar in W/m² (max.)
UV-Index (max.)
Sonnenscheindauer (hh:mm)
Windrichtung (Ø)
Windstärke (Ø in km/h)
Windstärke (Ø in bft)
Windböe (max., in km/h)
Uhrzeit
Windböe (max., in bft)
Uhrzeit
Taupunkt (max., in °C)
Uhrzeit
Taupunkt (min., in °C)
Uhrzeit
Windchill (min., in °C)
Uhrzeit
Gewitterindex (max.)
Uhrzeit
Waldbrandindex (max.)
Uhrzeit
Graslandfeuerindex (max.)
Uhrzeit
Staubsturm-Index (max.)
Uhrzeit
16
Zeitraffer
10:02
16.4
23:40 Uhr
7.4
00:00 Uhr

84
11:30 Uhr
44
23:05 Uhr
1014.4
00:05 Uhr

999.4
22:40 Uhr
1006.7
2,400
10:40 Uhr
1,400
1.905
75
199
14:45 Uhr
0.7
13:55 Uhr

00:11:00
15,8
3
46,7
18:40 Uhr

6
7.6
14:50 Uhr
2.9
03:05 Uhr
1.8
00:00 Uhr
0
00:00 Uhr
0.0
00:00 Uhr
0.2
21:00 Uhr
0.0
00:00 Uhr
17
Zeitraffer
10:06
16.4
00:00 Uhr
7.1
23:50 Uhr

85
01:05 Uhr
45
00:00 Uhr
1013.0
23:55 Uhr

1001.4
00:00 Uhr
1010.5
0,000
00:00 Uhr
0,000
2.108
172
450
11:30 Uhr
1.3
11:30 Uhr

05:18:00
13,0
2
62,8
00:30 Uhr

7
7.5
00:40 Uhr
0.1
12:40 Uhr
0.6
22:35 Uhr
0
00:00 Uhr
0.0
00:00 Uhr
0.0
00:00 Uhr
0.0
00:00 Uhr
18
Zeitraffer
10:10
8.2
12:50 Uhr
4.9
10:10 Uhr

85
09:25 Uhr
60
15:15 Uhr
1017.5
16:05 Uhr

1012.9
00:00 Uhr
1015.9
4,800
09:25 Uhr
1,200
1.372
121
533
12:40 Uhr
1.5
12:45 Uhr

01:44:00
12,4
2
54,7
12:05 Uhr

7
4.0
09:10 Uhr
0.5
17:05 Uhr
-5.1
09:25 Uhr
0
00:00 Uhr
0.0
00:00 Uhr
0.0
00:00 Uhr
0.0
00:00 Uhr
19
Zeitraffer
10:14
6.9
13:50 Uhr
2.7
20:15 Uhr

94
20:40 Uhr
71
13:55 Uhr
1017.7
23:30 Uhr

1009.1
08:45 Uhr
1012.8
7,200
19:45 Uhr
6,400
0.711
98
430
13:10 Uhr
1.3
13:10 Uhr

00:57:00
9,5
2
53,1
14:05 Uhr

7
4.0
11:15 Uhr
1.0
14:05 Uhr
-5.0
21:15 Uhr
0
00:00 Uhr
0.0
00:00 Uhr
0.0
00:00 Uhr
0.0
00:00 Uhr
20
Zeitraffer
10:17
7.5
23:55 Uhr
0.8
07:35 Uhr

92
00:00 Uhr
73
11:35 Uhr
1019.5
05:30 Uhr

1007.3
23:55 Uhr
1016.1
2,400
13:45 Uhr
1,000
0.787
133
390
11:15 Uhr
1.4
11:15 Uhr

03:26:00
8,7
2
32,2
22:45 Uhr

5
4.8
19:40 Uhr
-0.8
07:35 Uhr
-1.9
01:30 Uhr
0
00:00 Uhr
0.0
00:00 Uhr
0.0
00:00 Uhr
0.0
00:00 Uhr
21
Zeitraffer
10:21
7.6
00:11 Uhr
3.9
07:40 Uhr

92
02:50 Uhr
67
16:15 Uhr
1023.2
19:10 Uhr

1005.7
01:50 Uhr
1017.5
2,400
00:50 Uhr
3,400
1.067
101
429
13:15 Uhr
1.6
13:05 Uhr

00:33:00
12,1
2
48,3
03:10 Uhr

6
4.9
02:50 Uhr
1.2
18:20 Uhr
-4.9
09:10 Uhr
0
00:00 Uhr
0.0
00:00 Uhr
0.0
00:00 Uhr
0.0
00:00 Uhr
22
Zeitraffer
10:25
12.2
15:30 Uhr
6.4
00:00 Uhr

86
19:15 Uhr
42
12:40 Uhr
1021.9
00:00 Uhr

1009.8
15:30 Uhr
1014.3
7,200
19:05 Uhr
1,000
1.956
131
446
11:15 Uhr
1.5
11:15 Uhr

01:38:00
15,4
3
57,9
17:10 Uhr

7
5.9
19:00 Uhr
-1.0
12:40 Uhr
-0.7
20:55 Uhr
0
00:00 Uhr
0.0
00:00 Uhr
0.0
00:00 Uhr
0.0
00:00 Uhr
23
Zeitraffer
10:29
8.4
01:05 Uhr
4.1
22:00 Uhr

94
15:05 Uhr
66
05:00 Uhr
1013.0
01:05 Uhr

999.1
16:55 Uhr
1007.7
2,400
11:40 Uhr
6,200
0.787
47
95
11:15 Uhr
0.0
00:00 Uhr

00:00:00
11,4
2
46,7
23:35 Uhr

6
5.6
15:50 Uhr
1.8
23:55 Uhr
-5.9
23:45 Uhr
0
00:00 Uhr
0.0
00:00 Uhr
0.0
00:00 Uhr
0.0
00:00 Uhr
24
Zeitraffer
10:34
7.1
13:55 Uhr
3.2
21:00 Uhr

95
23:45 Uhr
72
14:50 Uhr
1018.7
09:35 Uhr

999.3
23:55 Uhr
1012.5
4,800
20:00 Uhr
5,200
0.864
120
306
10:05 Uhr
1.2
11:50 Uhr

00:56:00
10,9
2
43,5
01:00 Uhr

6
4.8
23:55 Uhr
1.5
00:20 Uhr
-5.7
01:20 Uhr
0
00:00 Uhr
0.0
00:00 Uhr
0.0
00:00 Uhr
0.0
00:00 Uhr
25
Zeitraffer
10:38
10.0
15:05 Uhr
4.4
23:20 Uhr

95
00:00 Uhr
53
14:15 Uhr
999.4
00:00 Uhr

992.1
23:35 Uhr
995.5
2,400
09:45 Uhr
0,200
1.956
233
662
12:45 Uhr
1.9
12:45 Uhr

06:01:00
12,2
2
48,3
13:45 Uhr

6
7.8
03:55 Uhr
-0.8
19:55 Uhr
-0.4
13:25 Uhr
0
00:00 Uhr
0.0
00:00 Uhr
0.0
00:00 Uhr
0.0
00:00 Uhr
26
Zeitraffer
10:42
5.4
16:05 Uhr
1.7
07:30 Uhr

92
05:15 Uhr
73
00:09 Uhr
999.7
23:50 Uhr

990.5
03:50 Uhr
993.7
0,000
00:00 Uhr
0,000
0.610
77
199
13:55 Uhr
0.7
13:50 Uhr

00:44:00
6,4
1
24,1
14:55 Uhr

4
1.9
12:15 Uhr
0.5
00:00 Uhr
-2.9
20:35 Uhr
0
00:00 Uhr
0.0
00:00 Uhr
0.0
00:00 Uhr
0.0
00:00 Uhr
27
Zeitraffer
10:45
5.1
13:15 Uhr
0.2
23:40 Uhr

93
09:05 Uhr
71
14:40 Uhr
1002.8
08:20 Uhr

998.3
17:45 Uhr
1000.8
2,400
12:40 Uhr
0,200
0.584
125
663
13:10 Uhr
1.8
12:50 Uhr

01:01:00
4,7
1
30,6
12:40 Uhr

5
2.3
12:25 Uhr
-1.0
23:55 Uhr
-4.8
12:40 Uhr
0
00:00 Uhr
0.0
00:00 Uhr
0.0
00:00 Uhr
0.0
00:00 Uhr
28
Zeitraffer
10:49
7.6
15:40 Uhr
-1.2
02:40 Uhr

95
04:50 Uhr
59
16:25 Uhr
1013.6
18:40 Uhr

1001.9
00:00 Uhr
1010.1
0,000
00:00 Uhr
0,000
1.168
172
628
12:55 Uhr
1.9
12:50 Uhr

03:04:00
6,9
1
35,4
12:45 Uhr

5
2.4
15:00 Uhr
-2.1
02:30 Uhr
-3.7
11:15 Uhr
0
00:00 Uhr
0.0
00:00 Uhr
0.0
00:00 Uhr
0.0
00:00 Uhr
29
Zeitraffer
10:54
11.4
15:35 Uhr
1.5
06:50 Uhr

93
07:55 Uhr
66
23:40 Uhr
1010.2
00:00 Uhr

991.2
20:05 Uhr
998.0
2,400
06:10 Uhr
2,600
1.447
156
591
13:00 Uhr
2.0
12:55 Uhr

03:47:00
10,9
2
40,2
23:40 Uhr

5
6.7
18:30 Uhr
-0.9
00:20 Uhr
-6.9
07:20 Uhr
0
00:00 Uhr
0.0
00:00 Uhr
0.0
00:00 Uhr
0.0
00:00 Uhr
Stationsstandorte || Wetterblog || Wissenswertes || Downloads || Seitenhistorie || Partner || Impressum / Datenschutz